カタログに戻る

STARLINK-34991

運用中通信SSO
NORAD 65446·PAYLOAD·🇺🇸 United States

打ち上げ Sep 3, 2025 から Vandenberg Space Force Base

Loading…

次のパス (今後24時間)

TLE

最新Source: CelesTrak SupGP

元期: Sep 14, 2026, 20:39 UTC

1 65446C 25194N   26257.86090278  .00023169  00000+0  71959-3 0  2579
2 65446  97.2840 107.4980 0001893  95.7889  50.5407 15.33410787    14

AllMySatでSTARLINK-34991をリアルタイム追跡

Download on the App Store